{"data":{"norad_id":64092,"epoch":"2026-09-21T21:56:22.206624Z","epoch_age_seconds":73252,"freshness":"FRESH","line1":"1 64092U 25108F   26264.91414591  .00014335  00000+0  48384-3 0  9996","line2":"2 64092  97.4625 342.9708 0010306  26.9440 333.2334 15.30748475 74280","mean_motion":15.30748475,"eccentricity":0.0010306,"inclination_deg":97.4625,"raan_deg":342.9708,"arg_perigee_deg":26.944,"mean_anomaly_deg":333.2334,"bstar":0.00048384,"rev_number":7428,"period_min":94.071627280243,"perigee_km":466.51653354608,"apogee_km":480.6392883205,"semimajor_km":6851.7149109333,"source":"CELESTRAK","updated_at":"2026-09-22T09:00:29.533820Z"}}